Time,TemperatureF,DewpointF,PressureIn,WindDirection,WindDirectionDegrees,WindSpeedMPH,WindSpeedGustMPH,Humidity,HourlyPrecipIn,Conditions,Clouds,dailyrainin,SoftwareType,DateUTC
2013-01-30 00:03:00,39.0,35.0,30.15,SSE,158,0.0,0.0,85,0.00,,,0.00,,2013-01-30 05:03:00,
2013-01-30 00:12:00,39.0,35.0,30.15,SSE,158,0.0,0.0,85,0.00,,,0.00,,2013-01-30 05:12:00,
2013-01-30 00:22:00,39.0,35.0,30.15,SSE,158,0.0,0.0,85,0.00,,,0.00,,2013-01-30 05:22:00,
2013-01-30 00:32:00,39.0,35.0,30.15,SSE,158,0.0,0.0,85,0.00,,,0.00,,2013-01-30 05:32:00,
2013-01-30 00:43:00,39.0,35.0,30.15,SSE,158,0.0,0.0,85,0.00,,,0.00,,2013-01-30 05:43:00,
2013-01-30 00:52:00,39.0,35.0,30.15,SSE,158,0.0,0.0,85,0.00,,,0.00,,2013-01-30 05:52:00,
2013-01-30 01:02:00,39.0,35.0,30.15,North,0,0.0,0.0,85,0.00,,,0.00,,2013-01-30 06:02:00,
2013-01-30 01:11:00,39.0,35.0,30.15,North,0,0.0,0.0,85,0.00,,,0.00,,2013-01-30 06:11:00,
2013-01-30 01:21:00,39.0,35.0,30.15,SSE,158,0.0,0.0,85,0.00,,,0.00,,2013-01-30 06:21:00,
2013-01-30 01:32:00,39.0,35.0,30.15,SSE,158,0.0,0.0,85,0.00,,,0.00,,2013-01-30 06:32:00,
2013-01-30 01:42:00,39.0,35.0,30.15,SSE,158,0.0,0.0,85,0.00,,,0.00,,2013-01-30 06:42:00,
2013-01-30 01:52:00,39.0,35.0,30.15,North,0,0.0,0.0,85,0.00,,,0.00,,2013-01-30 06:52:00,
2013-01-30 02:02:00,39.0,35.0,30.15,SSE,158,0.0,0.0,85,0.00,,,0.00,,2013-01-30 07:02:00,
2013-01-30 02:11:00,39.0,35.0,30.15,SSE,158,0.0,0.0,85,0.00,,,0.00,,2013-01-30 07:11:00,
2013-01-30 02:21:00,39.0,35.0,30.12,SSE,158,0.0,2.0,86,0.00,,,0.00,,2013-01-30 07:21:00,
2013-01-30 02:32:00,39.0,35.0,30.12,SSE,158,0.0,0.0,86,0.00,,,0.00,,2013-01-30 07:32:00,
2013-01-30 02:42:00,39.0,35.0,30.12,SSE,158,0.0,0.0,86,0.00,,,0.00,,2013-01-30 07:42:00,
2013-01-30 02:52:00,39.0,35.0,30.12,SSE,158,0.0,0.0,86,0.00,,,0.00,,2013-01-30 07:52:00,
2013-01-30 03:01:00,39.0,35.0,30.12,SSE,158,0.0,3.0,86,0.00,,,0.00,,2013-01-30 08:01:00,
2013-01-30 03:11:00,39.0,35.0,30.12,SSE,158,0.0,3.0,86,0.00,,,0.00,,2013-01-30 08:11:00,
2013-01-30 03:21:00,40.0,36.0,30.09,SSE,158,0.0,1.0,86,0.00,,,0.00,,2013-01-30 08:21:00,
2013-01-30 03:32:00,40.0,36.0,30.09,SSE,158,0.0,0.0,86,0.00,,,0.00,,2013-01-30 08:32:00,
2013-01-30 03:42:00,40.0,36.0,30.09,SSE,158,0.0,0.0,86,0.00,,,0.00,,2013-01-30 08:42:00,
2013-01-30 03:52:00,40.0,36.0,30.09,SSE,158,0.0,5.0,86,0.00,,,0.00,,2013-01-30 08:52:00,
2013-01-30 04:01:00,40.0,36.0,30.09,SSE,158,0.0,2.0,86,0.00,,,0.00,,2013-01-30 09:01:00,
2013-01-30 04:11:00,40.0,36.0,30.09,SSE,158,0.0,2.0,86,0.00,,,0.00,,2013-01-30 09:11:00,
2013-01-30 04:21:00,40.0,36.0,30.06,SSE,158,0.0,6.0,87,0.00,,,0.00,,2013-01-30 09:21:00,
2013-01-30 04:32:00,40.0,36.0,30.06,SSE,158,0.0,0.0,87,0.00,,,0.00,,2013-01-30 09:32:00,
2013-01-30 04:42:00,40.0,36.0,30.06,SSE,158,0.0,0.0,87,0.00,,,0.00,,2013-01-30 09:42:00,
2013-01-30 04:52:00,40.0,36.0,30.06,SSE,158,0.0,0.0,86,0.00,,,0.00,,2013-01-30 09:52:00,
2013-01-30 05:01:00,40.0,36.0,30.06,SSE,158,0.0,0.0,86,0.00,,,0.00,,2013-01-30 10:01:00,
2013-01-30 05:11:00,40.0,36.0,30.06,SSE,158,0.0,0.0,86,0.00,,,0.00,,2013-01-30 10:11:00,
2013-01-30 05:21:00,40.0,36.0,30.03,SSE,158,0.0,0.0,86,0.00,,,0.00,,2013-01-30 10:21:00,
2013-01-30 05:32:00,40.0,36.0,30.03,SSE,158,0.0,0.0,86,0.00,,,0.00,,2013-01-30 10:32:00,
2013-01-30 05:42:00,40.0,36.0,30.03,SSE,158,0.0,0.0,86,0.00,,,0.00,,2013-01-30 10:42:00,
2013-01-30 05:52:00,40.0,36.0,30.03,SE,135,0.0,0.0,86,0.00,,,0.00,,2013-01-30 10:52:00,
2013-01-30 06:02:00,40.0,36.0,30.03,SE,135,0.0,0.0,86,0.00,,,0.00,,2013-01-30 11:02:00,
2013-01-30 06:11:00,40.0,36.0,30.03,SE,135,0.0,0.0,86,0.00,,,0.00,,2013-01-30 11:11:00,
2013-01-30 06:22:00,40.0,36.0,30.03,SSE,158,0.0,0.0,86,0.00,,,0.00,,2013-01-30 11:22:00,
2013-01-30 06:33:00,41.0,37.0,30.03,SSE,158,0.0,0.0,86,0.00,,,0.00,,2013-01-30 11:33:00,
2013-01-30 06:42:00,41.0,37.0,30.03,SSE,158,0.0,0.0,86,0.00,,,0.00,,2013-01-30 11:42:00,
2013-01-30 06:52:00,41.0,37.0,30.03,SSE,158,0.0,3.0,86,0.00,,,0.00,,2013-01-30 11:52:00,
2013-01-30 07:02:00,41.0,37.0,30.03,SSE,158,2.0,2.0,86,0.00,,,0.00,,2013-01-30 12:02:00,
2013-01-30 07:12:00,41.0,37.0,30.03,SSE,158,2.0,2.0,86,0.00,,,0.00,,2013-01-30 12:12:00,
2013-01-30 07:22:00,41.0,37.0,30.00,North,0,0.0,1.0,86,0.00,,,0.00,,2013-01-30 12:22:00,
2013-01-30 07:33:00,42.0,38.0,30.00,SSE,158,0.0,0.0,86,0.00,,,0.00,,2013-01-30 12:33:00,
2013-01-30 07:43:00,42.0,38.0,30.00,SSE,158,0.0,0.0,86,0.00,,,0.00,,2013-01-30 12:43:00,
2013-01-30 08:03:00,42.0,38.0,30.00,SSE,158,0.0,7.0,86,0.00,,,0.00,,2013-01-30 13:03:00,
2013-01-30 08:12:00,42.0,38.0,30.00,SSE,158,0.0,7.0,86,0.00,,,0.00,,2013-01-30 13:12:00,
2013-01-30 08:23:00,43.0,39.0,29.97,SSE,158,0.0,4.0,87,0.00,,,0.00,,2013-01-30 13:23:00,
2013-01-30 08:33:00,43.0,39.0,29.97,SSE,158,0.0,2.0,87,0.00,,,0.00,,2013-01-30 13:33:00,
2013-01-30 08:43:00,43.0,39.0,29.97,SSE,158,0.0,2.0,87,0.00,,,0.00,,2013-01-30 13:43:00,
2013-01-30 08:53:00,45.0,42.0,29.97,South,180,2.0,6.0,88,0.00,,,0.00,,2013-01-30 13:53:00,
2013-01-30 09:03:00,47.0,44.0,29.97,SSE,158,0.0,5.0,88,0.00,,,0.00,,2013-01-30 14:03:00,
2013-01-30 09:12:00,47.0,44.0,29.97,SSE,158,0.0,5.0,88,0.00,,,0.00,,2013-01-30 14:12:00,
2013-01-30 09:23:00,48.0,45.0,29.94,SSE,158,0.0,7.0,88,0.00,,,0.00,,2013-01-30 14:23:00,
2013-01-30 09:33:00,48.0,45.0,29.94,SSE,158,0.0,7.0,88,0.00,,,0.00,,2013-01-30 14:33:00,
2013-01-30 09:42:00,48.0,45.0,29.94,SSE,158,0.0,7.0,88,0.00,,,0.00,,2013-01-30 14:42:00,
2013-01-30 09:53:00,52.0,49.0,29.94,SSE,158,0.0,11.0,89,0.00,,,0.00,,2013-01-30 14:53:00,
2013-01-30 10:03:00,52.0,49.0,29.91,SSW,202,0.0,8.0,89,0.00,,,0.00,,2013-01-30 15:03:00,
2013-01-30 10:12:00,52.0,49.0,29.91,SSW,202,0.0,8.0,89,0.00,,,0.00,,2013-01-30 15:12:00,
2013-01-30 10:23:00,54.0,51.0,29.91,SW,225,0.0,8.0,89,0.00,,,0.00,,2013-01-30 15:23:00,
2013-01-30 10:33:00,55.0,52.0,29.91,South,180,0.0,9.0,89,0.00,,,0.00,,2013-01-30 15:33:00,
2013-01-30 10:43:00,55.0,52.0,29.91,South,180,0.0,9.0,89,0.00,,,0.00,,2013-01-30 15:43:00,
2013-01-30 10:53:00,55.0,52.0,29.91,SSE,158,8.0,10.0,88,0.00,,,0.00,,2013-01-30 15:53:00,
2013-01-30 11:03:00,55.0,52.0,29.91,South,180,8.0,8.0,89,0.00,,,0.00,,2013-01-30 16:03:00,
2013-01-30 11:12:00,55.0,52.0,29.91,South,180,8.0,8.0,89,0.00,,,0.00,,2013-01-30 16:12:00,
2013-01-30 11:23:00,55.0,52.0,29.88,SSW,202,0.0,8.0,89,0.00,,,0.00,,2013-01-30 16:23:00,
2013-01-30 11:32:00,56.0,52.0,29.88,SE,135,7.0,8.0,88,0.00,,,0.00,,2013-01-30 16:32:00,
2013-01-30 11:42:00,56.0,52.0,29.88,SE,135,7.0,8.0,88,0.00,,,0.00,,2013-01-30 16:42:00,
2013-01-30 11:52:00,56.0,52.0,29.88,SE,135,7.0,8.0,88,0.00,,,0.00,,2013-01-30 16:52:00,
2013-01-30 12:02:00,56.0,52.0,29.88,North,0,0.0,12.0,88,0.00,,,0.00,,2013-01-30 17:02:00,
2013-01-30 12:12:00,56.0,52.0,29.88,North,0,0.0,12.0,88,0.00,,,0.00,,2013-01-30 17:12:00,
2013-01-30 12:23:00,56.0,52.0,29.88,North,0,0.0,12.0,88,0.00,,,0.00,,2013-01-30 17:23:00,
2013-01-30 12:33:00,56.0,52.0,29.88,North,0,0.0,12.0,88,0.00,,,0.00,,2013-01-30 17:33:00,
2013-01-30 12:43:00,56.0,52.0,29.88,North,0,0.0,12.0,88,0.00,,,0.00,,2013-01-30 17:43:00,
2013-01-30 12:53:00,58.0,54.0,29.83,North,0,0.0,12.0,86,0.00,,,0.00,,2013-01-30 17:53:00,
2013-01-30 13:03:00,58.0,54.0,29.83,North,0,0.0,12.0,86,0.00,,,0.00,,2013-01-30 18:03:00,
2013-01-30 13:13:00,58.0,54.0,29.83,North,0,0.0,12.0,86,0.00,,,0.00,,2013-01-30 18:13:00,
2013-01-30 13:23:00,58.0,54.0,29.80,North,0,0.0,12.0,86,0.00,,,0.00,,2013-01-30 18:23:00,
2013-01-30 13:33:00,58.0,54.0,29.80,North,0,0.0,12.0,86,0.00,,,0.00,,2013-01-30 18:33:00,
2013-01-30 13:43:00,58.0,54.0,29.80,North,0,0.0,12.0,86,0.00,,,0.00,,2013-01-30 18:43:00,
2013-01-30 13:53:00,58.0,54.0,29.80,North,0,0.0,12.0,86,0.00,,,0.00,,2013-01-30 18:53:00,
2013-01-30 14:03:00,59.0,54.0,29.77,South,180,8.0,12.0,85,0.00,,,0.00,,2013-01-30 19:03:00,
2013-01-30 14:12:00,59.0,54.0,29.77,South,180,8.0,12.0,85,0.00,,,0.00,,2013-01-30 19:12:00,
2013-01-30 14:22:00,59.0,54.0,29.77,SW,225,0.0,8.0,84,0.00,,,0.00,,2013-01-30 19:22:00,
2013-01-30 14:33:00,59.0,54.0,29.77,SW,225,0.0,8.0,84,0.00,,,0.00,,2013-01-30 19:33:00,
2013-01-30 14:43:00,59.0,54.0,29.77,SW,225,0.0,8.0,84,0.00,,,0.00,,2013-01-30 19:43:00,
2013-01-30 14:53:00,60.0,55.0,29.77,South,180,6.0,8.0,85,0.00,,,0.00,,2013-01-30 19:53:00,
2013-01-30 15:03:00,59.0,54.0,29.77,South,180,3.0,14.0,84,0.00,,,0.00,,2013-01-30 20:03:00,
2013-01-30 15:12:00,59.0,54.0,29.77,South,180,3.0,14.0,84,0.00,,,0.00,,2013-01-30 20:12:00,
2013-01-30 15:22:00,59.0,54.0,29.77,South,180,2.0,6.0,85,0.00,,,0.00,,2013-01-30 20:22:00,
2013-01-30 15:33:00,58.0,54.0,29.77,South,180,0.0,5.0,85,0.00,,,0.00,,2013-01-30 20:33:00,
2013-01-30 15:42:00,58.0,54.0,29.77,South,180,0.0,5.0,85,0.00,,,0.00,,2013-01-30 20:42:00,
2013-01-30 15:53:00,58.0,54.0,29.74,South,180,7.0,7.0,86,0.00,,,0.00,,2013-01-30 20:53:00,
2013-01-30 16:03:00,58.0,54.0,29.74,WSW,248,0.0,8.0,86,0.00,,,0.00,,2013-01-30 21:03:00,
2013-01-30 16:12:00,58.0,54.0,29.74,WSW,248,0.0,8.0,86,0.00,,,0.00,,2013-01-30 21:12:00,
2013-01-30 16:23:00,58.0,54.0,29.74,WSW,248,0.0,8.0,87,0.00,,,0.00,,2013-01-30 21:23:00,
2013-01-30 16:32:00,58.0,54.0,29.74,WSW,248,0.0,8.0,87,0.00,,,0.00,,2013-01-30 21:32:00,
2013-01-30 16:42:00,58.0,54.0,29.74,WSW,248,0.0,8.0,87,0.00,,,0.00,,2013-01-30 21:42:00,
2013-01-30 16:53:00,57.0,53.0,29.74,SW,225,4.0,4.0,88,0.00,,,0.00,,2013-01-30 21:53:00,
2013-01-30 17:03:00,57.0,53.0,29.71,SSW,202,0.0,4.0,88,0.00,,,0.00,,2013-01-30 22:03:00,
2013-01-30 17:12:00,57.0,53.0,29.71,SSW,202,0.0,4.0,88,0.00,,,0.00,,2013-01-30 22:12:00,
2013-01-30 17:22:00,57.0,53.0,29.74,SSE,158,0.0,4.0,88,0.00,,,0.00,,2013-01-30 22:22:00,
2013-01-30 17:32:00,57.0,53.0,29.74,SSE,158,0.0,4.0,88,0.00,,,0.00,,2013-01-30 22:32:00,
2013-01-30 17:42:00,57.0,53.0,29.74,SSE,158,0.0,4.0,88,0.00,,,0.00,,2013-01-30 22:42:00,
2013-01-30 17:53:00,57.0,53.0,29.74,SSE,158,0.0,4.0,88,0.00,,,0.00,,2013-01-30 22:53:00,
2013-01-30 18:02:00,57.0,53.0,29.74,North,0,0.0,4.0,88,0.00,,,0.00,,2013-01-30 23:02:00,
2013-01-30 18:12:00,57.0,53.0,29.74,North,0,0.0,4.0,88,0.00,,,0.00,,2013-01-30 23:12:00,
2013-01-30 18:22:00,57.0,53.0,29.74,North,0,0.0,4.0,88,0.00,,,0.00,,2013-01-30 23:22:00,
2013-01-30 18:32:00,57.0,53.0,29.74,North,0,0.0,4.0,88,0.00,,,0.00,,2013-01-30 23:32:00,
2013-01-30 18:42:00,57.0,53.0,29.74,North,0,0.0,4.0,88,0.00,,,0.00,,2013-01-30 23:42:00,
2013-01-30 18:52:00,57.0,53.0,29.74,North,0,0.0,4.0,88,0.00,,,0.00,,2013-01-30 23:52:00,
2013-01-30 19:02:00,57.0,53.0,29.74,North,0,0.0,4.0,88,0.00,,,0.00,,2013-01-31 00:02:00,
2013-01-30 19:11:00,57.0,53.0,29.74,North,0,0.0,4.0,88,0.00,,,0.00,,2013-01-31 00:11:00,
2013-01-30 19:22:00,57.0,54.0,29.71,North,0,0.0,4.0,89,0.00,,,0.00,,2013-01-31 00:22:00,
2013-01-30 19:32:00,57.0,54.0,29.71,North,0,0.0,4.0,89,0.00,,,0.00,,2013-01-31 00:32:00,
2013-01-30 19:43:00,57.0,54.0,29.71,North,0,0.0,4.0,89,0.00,,,0.00,,2013-01-31 00:43:00,
2013-01-30 19:53:00,57.0,54.0,29.71,North,0,0.0,4.0,89,0.00,,,0.00,,2013-01-31 00:53:00,
2013-01-30 20:02:00,57.0,54.0,29.68,North,0,0.0,4.0,90,0.00,,,0.00,,2013-01-31 01:02:00,
2013-01-30 20:12:00,57.0,54.0,29.68,North,0,0.0,4.0,90,0.00,,,0.00,,2013-01-31 01:12:00,
2013-01-30 20:22:00,57.0,54.0,29.68,North,0,0.0,4.0,90,0.00,,,0.00,,2013-01-31 01:22:00,
2013-01-30 20:32:00,57.0,54.0,29.68,North,0,0.0,4.0,90,0.00,,,0.00,,2013-01-31 01:32:00,
2013-01-30 20:42:00,57.0,54.0,29.68,North,0,0.0,4.0,90,0.00,,,0.00,,2013-01-31 01:42:00,
2013-01-30 20:52:00,58.0,55.0,29.65,North,0,0.0,4.0,89,0.00,,,0.00,,2013-01-31 01:52:00,
2013-01-30 21:01:00,58.0,55.0,29.65,North,0,0.0,4.0,89,0.00,,,0.00,,2013-01-31 02:01:00,
2013-01-30 21:12:00,58.0,55.0,29.65,North,0,0.0,4.0,89,0.00,,,0.00,,2013-01-31 02:12:00,
2013-01-30 21:22:00,58.0,55.0,29.65,North,0,0.0,4.0,89,0.00,,,0.00,,2013-01-31 02:22:00,
2013-01-30 21:32:00,58.0,55.0,29.65,North,0,0.0,4.0,89,0.00,,,0.00,,2013-01-31 02:32:00,
2013-01-30 21:42:00,58.0,55.0,29.65,North,0,0.0,4.0,89,0.00,,,0.00,,2013-01-31 02:42:00,
2013-01-30 21:52:00,58.0,55.0,29.65,North,0,0.0,4.0,89,0.00,,,0.00,,2013-01-31 02:52:00,
2013-01-30 22:22:00,59.0,55.0,29.62,North,0,0.0,4.0,88,0.00,,,0.00,,2013-01-31 03:22:00,
2013-01-30 22:32:00,59.0,55.0,29.62,North,0,0.0,4.0,88,0.00,,,0.00,,2013-01-31 03:32:00,
2013-01-30 22:42:00,59.0,55.0,29.62,North,0,0.0,4.0,88,0.00,,,0.00,,2013-01-31 03:42:00,
2013-01-30 22:52:00,59.0,55.0,29.62,North,0,0.0,4.0,88,0.00,,,0.00,,2013-01-31 03:52:00,
2013-01-30 23:02:00,59.0,55.0,29.59,North,0,0.0,4.0,88,0.00,,,0.00,,2013-01-31 04:02:00,
2013-01-30 23:11:00,59.0,55.0,29.59,North,0,0.0,4.0,88,0.00,,,0.00,,2013-01-31 04:11:00,
2013-01-30 23:22:00,59.0,55.0,29.59,North,0,0.0,0.0,88,0.00,,,0.00,,2013-01-31 04:22:00,
2013-01-30 23:32:00,59.0,55.0,29.59,North,0,0.0,0.0,88,0.00,,,0.00,,2013-01-31 04:32:00,
2013-01-30 23:41:00,59.0,55.0,29.59,North,0,0.0,0.0,88,0.00,,,0.00,,2013-01-31 04:41:00,
2013-01-30 23:52:00,59.0,55.0,29.59,North,0,0.0,0.0,88,0.00,,,0.00,,2013-01-31 04:52:00,